Boone, IA

1:54 PM CST on February 27, 2017 (GMT -0600)
Boone Municipal

Weather History for KBNW - December, 2012

Change the Weather History Date:

Sunday, December 9, 2012

  Actual Average Record
Temperature  
Mean Temperature 28 °F -  
Max Temperature 37 °F 33 °F 54 °F (1984)
Min Temperature 20 °F 13 °F -16 °F (1958)
Degree Days  
Heating Degree Days 36    
Moisture  
Dew Point 28 °F    
Average Humidity 84    
Maximum Humidity 91    
Minimum Humidity 74    
Precipitation  
Precipitation 0.11 in - - ()
Sea Level Pressure  
Sea Level Pressure 29.88 in    
Wind  
Wind Speed 11 mph (SW)    
Max Wind Speed 25 mph    
Max Gust Speed 36 mph    
Visibility 6 miles    
Events Rain , Snow    
Averages and records for this station are not official NWS values.
T = Trace of Precipitation, MM = Missing Value Source: NWS Daily Summary

Daily Weather History Graph

Daily Weather History Graph

Search for Another Location

Airport or City:

Trip Planner

Search our weather history database for the weather conditions in past years. The results will help you decide how hot, cold, wet, or windy it might be!

Date:

Astronomy

Dec. 09, 2012 Rise Set
Actual Time 7:32 AM CST 4:43 PM CST
Civil Twilight 7:00 AM CST 5:15 PM CST
Nautical Twilight 6:25 AM CST 5:50 PM CST
Astronomical Twilight 5:51 AM CST 6:24 PM CST
Moon 3:02 AM CST (12/9) 1:53 PM CST (12/9)
Length of Visible Light 10h 14m
Length of Day
9h 11m
Waning Crescent, 18% of the Moon is Illuminated
Dec 9
Waning Crescent
Dec 13
New
Dec 19
First Quarter
Dec 28
Full
Jan 4
Last Quarter

Hourly Weather History & Observations

Time (CST) Temp. Windchill Dew Point Humidity Pressure Visibility Wind Dir Wind Speed Gust Speed Precip Events Conditions
12:15 AM 36.5 °F 29.2 °F 33.3 °F 88% 29.94 in 5.0 mi SE 10.4 mph - N/A   Overcast
12:35 AM 36.5 °F 29.2 °F 33.3 °F 88% 29.92 in 5.0 mi ESE 10.4 mph - N/A   Overcast
12:55 AM 36.7 °F 29.4 °F 33.4 °F 88% 29.91 in 5.0 mi SE 10.4 mph - N/A   Overcast
1:15 AM 36.7 °F 28.9 °F 33.4 °F 88% 29.91 in 5.0 mi ESE 11.5 mph - N/A   Overcast
1:35 AM 36.9 °F 30.7 °F 33.8 °F 89% 29.92 in 5.0 mi SE 8.1 mph - N/A   Overcast
1:55 AM 36.9 °F 32.2 °F 33.8 °F 89% 29.92 in 5.0 mi SE 5.8 mph - N/A   Overcast
2:15 AM 36.7 °F 31.2 °F 33.8 °F 89% 29.91 in 4.0 mi ESE 6.9 mph - N/A   Overcast
2:35 AM 36.7 °F 32.0 °F 33.8 °F 89% 29.91 in 4.0 mi ESE 5.8 mph - N/A   Overcast
2:55 AM 36.7 °F 31.2 °F 33.8 °F 89% 29.91 in 3.0 mi ESE 6.9 mph - N/A   Overcast
3:15 AM 36.9 °F 32.2 °F 34.0 °F 89% 29.91 in 3.0 mi ESE 5.8 mph - N/A   Overcast
3:35 AM 36.9 °F - 34.0 °F 89% 29.92 in 3.0 mi Calm Calm - N/A   Overcast
3:55 AM 36.9 °F - 34.0 °F 89% 29.91 in 3.0 mi Calm Calm - N/A   Overcast
4:15 AM 37.0 °F 32.4 °F 34.2 °F 89% 29.90 in 3.0 mi East 5.8 mph - N/A   Overcast
4:35 AM 37.0 °F 32.4 °F 34.2 °F 89% 29.89 in 2.5 mi East 5.8 mph - N/A Rain Light Rain
4:55 AM 37.0 °F 32.4 °F 34.2 °F 89% 29.88 in 3.0 mi East 5.8 mph - N/A Rain Light Rain
5:15 AM 37.0 °F 32.4 °F 34.2 °F 89% 29.88 in 3.0 mi East 5.8 mph - N/A Rain Light Rain
5:35 AM 36.9 °F 32.2 °F 34.0 °F 89% 29.88 in 2.0 mi East 5.8 mph - N/A Snow Light Snow
5:55 AM 36.3 °F 30.1 °F 33.3 °F 89% 29.88 in 1.2 mi East 8.1 mph - 0.01 in Snow Light Snow
6:15 AM 36.0 °F 29.0 °F 33.3 °F 90% 29.87 in 1.2 mi East 9.2 mph - 0.01 in Snow Light Snow
6:35 AM 36.0 °F 28.0 °F 33.3 °F 90% 29.87 in 1.5 mi ESE 11.5 mph - 0.02 in Snow Light Snow
6:55 AM 36.0 °F 28.5 °F 33.3 °F 90% 29.88 in 1.8 mi ESE 10.4 mph - 0.02 in Snow Light Snow
7:15 AM 36.0 °F 29.0 °F 33.3 °F 90% 29.87 in 1.2 mi ESE 9.2 mph - 0.01 in Snow Light Snow
7:35 AM 36.0 °F 29.0 °F 33.3 °F 90% 29.87 in 1.8 mi SE 9.2 mph - 0.01 in Snow Light Snow
8:35 AM 36.0 °F 30.3 °F 33.4 °F 91% 29.86 in 0.8 mi SE 6.9 mph - N/A Snow Light Snow
8:55 AM 36.0 °F 30.3 °F 33.4 °F 91% 29.87 in 1.0 mi SE 6.9 mph - N/A Snow Light Snow
9:15 AM 36.1 °F 30.6 °F 33.6 °F 91% 29.87 in 1.2 mi SSE 6.9 mph - 0.01 in Snow Light Snow
9:35 AM 36.1 °F 30.6 °F 33.8 °F 91% 29.88 in 1.8 mi SSE 6.9 mph - 0.03 in Snow Light Snow
9:55 AM 36.1 °F 30.6 °F 33.8 °F 91% 29.86 in 1.0 mi SSE 6.9 mph - 0.04 in Snow Light Snow
10:15 AM 36.5 °F 32.7 °F 33.8 °F 90% 29.87 in 1.8 mi South 4.6 mph - 0.01 in Snow Light Snow
10:35 AM 36.5 °F 31.0 °F 33.8 °F 90% 29.87 in 2.0 mi South 6.9 mph - 0.01 in   Overcast
10:55 AM 36.5 °F 32.7 °F 33.8 °F 90% 29.86 in 2.5 mi SSW 4.6 mph - 0.01 in   Overcast
11:15 AM 36.5 °F 31.8 °F 34.0 °F 91% 29.86 in 1.8 mi SSW 5.8 mph - N/A Rain Light Rain
11:35 AM 36.5 °F 31.8 °F 34.0 °F 91% 29.84 in 1.5 mi SW 5.8 mph - 0.02 in Rain Light Rain
11:55 AM 36.5 °F 32.7 °F 34.0 °F 91% 29.82 in 1.8 mi SW 4.6 mph - 0.02 in   Light Drizzle
12:15 PM 36.7 °F 30.5 °F 34.2 °F 91% 29.83 in 2.5 mi SW 8.1 mph - N/A   Overcast
12:35 PM 36.7 °F 29.4 °F 34.2 °F 91% 29.82 in 4.0 mi West 10.4 mph 16.1 mph N/A   Overcast
12:55 PM 36.0 °F 29.0 °F 33.3 °F 90% 29.82 in 5.0 mi West 9.2 mph - N/A   Overcast
1:15 PM 35.8 °F 27.8 °F 32.4 °F 87% 29.82 in 10.0 mi West 11.5 mph 18.4 mph N/A   Overcast
1:35 PM 34.7 °F 24.3 °F 30.9 °F 86% 29.82 in 10.0 mi WNW 17.3 mph 24.2 mph N/A   Overcast
1:55 PM 34.0 °F 24.6 °F 29.5 °F 84% 29.82 in 10.0 mi West 13.8 mph 21.9 mph N/A   Overcast
2:15 PM 33.3 °F 23.2 °F 27.5 °F 79% 29.83 in 10.0 mi West 15.0 mph 24.2 mph N/A   Overcast
2:35 PM 32.0 °F 19.8 °F 25.5 °F 77% 29.84 in 10.0 mi West 20.7 mph 27.6 mph N/A   Mostly Cloudy
2:55 PM 31.5 °F 19.1 °F 24.3 °F 75% 29.84 in 10.0 mi West 20.7 mph 27.6 mph N/A   Overcast
3:15 PM 30.6 °F 18.6 °F 23.7 °F 76% 29.86 in 10.0 mi West 18.4 mph 26.5 mph N/A   Overcast
3:35 PM 29.8 °F 17.3 °F 22.8 °F 75% 29.86 in 10.0 mi West 19.6 mph 24.2 mph N/A   Overcast
3:55 PM 28.9 °F 17.7 °F 21.9 °F 75% 29.87 in 10.0 mi West 15.0 mph 26.5 mph N/A   Overcast
4:15 PM 28.2 °F 13.9 °F 21.0 °F 74% 29.87 in 10.0 mi West 24.2 mph 28.8 mph N/A   Overcast
4:35 PM 27.3 °F 13.0 °F 20.3 °F 75% 29.87 in 10.0 mi West 23.0 mph 28.8 mph N/A   Overcast
4:55 PM 26.6 °F 13.4 °F 19.9 °F 76% 29.88 in 10.0 mi West 18.4 mph 29.9 mph N/A   Overcast
5:15 PM 25.7 °F 12.7 °F 19.0 °F 76% 29.88 in 10.0 mi West 17.3 mph 28.8 mph N/A   Overcast
5:35 PM 25.7 °F 10.8 °F 19.0 °F 76% 29.88 in 10.0 mi West 23.0 mph 29.9 mph N/A   Overcast
5:55 PM 25.3 °F 12.2 °F 18.9 °F 76% 29.88 in 10.0 mi West 17.3 mph 28.8 mph N/A   Overcast
6:15 PM 25.3 °F 11.8 °F 18.9 °F 76% 29.89 in 10.0 mi West 18.4 mph 28.8 mph N/A   Overcast
6:55 PM 25.7 °F 12.7 °F 19.2 °F 76% 29.88 in 10.0 mi West 17.3 mph 24.2 mph N/A   Overcast
7:15 PM 25.7 °F 12.7 °F 19.2 °F 76% 29.89 in 10.0 mi West 17.3 mph 26.5 mph N/A   Overcast
7:35 PM 25.7 °F 11.5 °F 19.2 °F 76% 29.90 in 10.0 mi West 20.7 mph 27.6 mph N/A   Overcast
7:55 PM 25.2 °F 10.4 °F 17.8 °F 74% 29.90 in 10.0 mi WNW 21.9 mph 29.9 mph N/A   Overcast
8:15 PM 24.6 °F 9.1 °F 17.2 °F 74% 29.90 in 10.0 mi WNW 24.2 mph 34.5 mph N/A   Overcast
8:35 PM 23.9 °F 9.1 °F 17.1 °F 75% 29.91 in 10.0 mi WNW 20.7 mph 33.4 mph N/A   Overcast
8:55 PM 23.2 °F 6.8 °F 16.2 °F 75% 29.92 in 10.0 mi WNW 25.3 mph 31.1 mph N/A   Overcast
9:15 PM 22.8 °F 7.4 °F 15.6 °F 74% 29.92 in 10.0 mi WNW 21.9 mph 31.1 mph N/A   Overcast
9:35 PM 22.1 °F 6.0 °F 15.1 °F 74% 29.92 in 10.0 mi WNW 23.0 mph 31.1 mph N/A   Overcast
9:55 PM 21.7 °F 5.9 °F 14.9 °F 75% 29.93 in 10.0 mi WNW 21.9 mph 29.9 mph N/A   Overcast
10:15 PM 21.2 °F 5.6 °F 14.7 °F 76% 29.92 in 10.0 mi WNW 20.7 mph 32.2 mph N/A   Overcast
10:35 PM 21.2 °F 5.6 °F 14.4 °F 75% 29.92 in 10.0 mi WNW 20.7 mph 33.4 mph N/A   Overcast
10:55 PM 20.8 °F 6.4 °F 14.2 °F 75% 29.94 in 10.0 mi WNW 17.3 mph 35.7 mph N/A   Overcast
11:15 PM 21.0 °F 5.4 °F 14.4 °F 75% 29.95 in 10.0 mi WNW 20.7 mph 29.9 mph N/A   Overcast